Tracking 31027 objects as of 19-Jul-2025
HD Live streaming from Space Station
objects crossing your sky now

FENGYUN 1C DEB

Track FENGYUN 1C DEB now!
10-day predictions


NORAD ID: 30306
Int'l Code: 1999-025ZT
Perigee: 724.4 km
Apogee: 892.0 km
Inclination: 98.6 °
Period: 100.9 minutes
Semi major axis: 7179 km
RCS: 0.0194 m2 (small)
Launch date: May 10, 1999
Source: People's Republic of China (PRC)
Launch site: Taiyaun Space Center, China (TSC)

Note: This is SATELLITE DEBRIS
Your satellite tracking list
FLOCK 3S 1
Track 1 satellite(s)




NASA's NSSDC Master Catalog

Two Line Element Set (TLE):
1 30306U 99025ZT  25199.83453122  .00001691  00000-0  66010-3 0  9994
2 30306  98.5995 243.2961 0116755  67.9150 293.4380 14.27212895955974
Source of the keplerian elements: AFSPC